Regional Weather Roundup
Issued by NWS

Home | Current Version | Previous Version | Graphics & Text | Print | Product List | Glossary On
Versions: 1 2 3 4 5 6 7 8 9 10 11 12 13 14 15 16 17 18 19 20 21 22 23 24 25 26 27 28 29 30 31 32 33 34 35 36 37 38 39 40 41 42 43 44 45 46 47 48 49 50
000
ASUS43 KLSX 110710
RWRMO

WEATHER SUMMARY FOR MISSOURI
NATIONAL WEATHER SERVICE SPRINGFIELD MO
100 AM CST SUN DEC 11 2016

NOTE: "FAIR" INDICATES FEW OR NO CLOUDS BELOW 12,000 FEET WITH NO
       SIGNIFICANT WEATHER AND/OR OBSTRUCTIONS TO VISIBILITY.
       CURRENT SKY AND/OR WEATHER CONDITIONS ARE NOT AVAILABLE FOR
       CHILLICOTHE AND FARMINGTON.

MOZ001>031-035>038-043-044-053-054-110800-
...NORTHERN AND WESTERN MISSOURI...

CITY           SKY/WX    TMP DP  RH WIND       PRES   REMARKS
KANSAS CTY INT CLOUDY    40  25  55 S17G23    29.89F
KANSAS C DTWN  CLOUDY    41  24  51 VRB7      29.91F
LEE`S SUMMIT   CLOUDY    37  22  54 SE9       29.92F
ST JOSEPH      CLOUDY    36  22  56 S12       29.89F WCI  28
CHILLICOTHE      N/A     36  19  50 SE7       29.98F
KIRKSVILLE     CLOUDY    33  19  56 SE13      30.00F WCI  24

$$
MOZ066>068-077>081-088>096-101>105-110800-
...SOUTHWEST MISSOURI...

CITY           SKY/WX    TMP DP  RH WIND       PRES   REMARKS
SPRINGFIELD    CLOUDY    39  21  48 S17       30.00F WCI  30
JOPLIN         CLOUDY    45  27  49 S20G26    29.98F
BRANSON        CLOUDY    39  23  52 SE13      30.06F

$$
MOZ032>034-039>042-045>050-055>058-069>072-110800-
...CENTRAL MISSOURI...

CITY           SKY/WX    TMP DP  RH WIND       PRES   REMARKS
COLUMBIA       CLOUDY    36  17  46 SE12      30.04F WCI  28
JEFFERSON CITY CLOUDY    37  18  46 SE8       30.06F
ROLLA          CLOUDY    35  21  56 S14       30.06F WCI  26
SEDALIA        CLOUDY    38  19  46 S17       30.00F WCI  28
WHITEMAN AFB   CLOUDY    39  21  48 S12       29.96F
WARRENSBURG    CLOUDY    37  21  52 SE9       29.96F
OSAGE BEACH    CLOUDY    38  21  50 S12G20    30.05F

$$
MOZ051-052-059>065-110800-
...EAST CENTRAL MISSOURI...

CITY           SKY/WX    TMP DP  RH WIND       PRES   REMARKS
ST LOUIS INTL  NOT AVBL
SPIRIT OF STL  CLOUDY    37  18  46 SE5       30.14F
ST CHARLES     CLOUDY    35  21  56 SE8       30.15F WCI  29

$$
MOZ072>076-082>087-097>100-106>115-110800-
...SOUTH CENTRAL AND SOUTHEAST MISSOURI...

CITY           SKY/WX    TMP DP  RH WIND       PRES   REMARKS
CAPE GIRARDEAU CLOUDY    36  22  56 S9        30.24F WCI  29
FARMINGTON     CLOUDY    36  18  48 S13G20    30.16F WCI  27
POPLAR BLUFF   CLOUDY    38  23  55 S8        30.23F
WEST PLAINS    CLOUDY    36  22  56 S13G21    30.13F WCI  27

$$



USA.gov is the U.S. government's official web portal to all federal, state and local government web resources and services.